Location: Boll�ne
(44.2848°N, 4.7530°E)
Time: 02:15:14
(UTC+00:00)

Daily predictions for brighter satellites

Satellite Brightness Start Highest point End
(mag) Time Altitude Azimuth Time Altitude Azimuth Time Altitude Azimuth
CENTAUR R/B 4.2 02:45:10 36° NE 02:45:19 36° NE 02:53:12 10° E
USA 238 DEB 4.3 03:18:26 56° ENE 03:18:26 56° ENE 03:25:26 10° SE
USA 238 4.3 03:18:30 55° ENE 03:18:30 55° ENE 03:25:31 10° SE
ALOS 3.9 03:36:51 10° NNE 03:47:07 - SSE 03:40:31 31° E
Lacrosse 5 4.3 03:43:42 12° SSE 03:46:24 18° ESE 03:49:47 10° ENE
Cosmos 2263 Rocket 3.2 03:46:18 29° SSE 03:48:33 42° ESE 03:53:53 10° NE
SJ 16-02 3.8 03:56:40 10° SSE 04:00:03 22° E 04:03:27 10° NE
ATLAS 3B R/B 4.2 03:59:43 20° N 04:03:01 29° NE 04:09:05 10° E
Cosmos 1603 4.0 04:08:24 47° N 04:09:47 61° ENE 04:15:20 10° SE
COSMO-SKYMED 1 4.3 04:07:15 10° SE 04:11:04 31° ENE 04:13:49 16° NNE
FENGYUN 3A 3.8 04:07:49 10° NNE 04:13:16 71° ESE 04:18:38 10° S
Cosmos 1386 Rocket 4.4 04:09:44 10° S 04:16:08 79° W 04:22:32 10° N
BREEZE-M DEB (TANK) 4.4 04:16:40 49° WSW 04:19:18 85° NNW 04:51:20 10° ENE
Cosmos 1943 3.5 04:17:13 37° N 04:19:23 64° ENE 04:25:02 10° SE
ADEOS 3.7 04:15:45 10° NNE 04:21:00 72° ESE 04:26:12 10° S
Cosmos 1933 4.3 04:21:48 38° NE 04:22:50 47° ENE 04:26:47 10° SSE
Cosmos 1777 Rocket 3.9 04:23:32 75° NNW 04:23:32 75° NNW 04:28:26 10° NNE
NOSS 3-2 (C) 4.0 04:20:32 39° NW 04:23:58 89° SW 04:32:35 10° SE
NOSS 3-4 (A) 3.8 04:19:51 18° SSW 04:24:10 60° ESE 04:30:18 10° NE
NOSS 3-4 (C) 3.8 04:19:51 17° SSW 04:24:19 60° ESE 04:30:25 10° NE
ATLAS CENTAUR R/B 3.9 04:23:42 11° NNE 04:24:40 11° NE 04:25:55 10° NE
Nadezhda 1 Rocket 4.0 04:28:57 52° NW 04:29:57 58° W 04:36:05 10° S
SL-4 R/B 3.0 04:33:39 36° NNE 04:33:39 36° NNE 04:36:11 10° NE
Meteor 1-4 Rocket 4.1 04:31:52 25° NE 04:33:03 33° ENE 04:36:11 10° SE
Cosmos 2084 3.4 04:33:10 87° S 04:33:10 87° S 04:37:36 10° SE
Meteor 1-31 Rocket 3.1 04:31:57 10° NNE 04:39:47 - S 04:35:12 60° NE
Cosmos 1538 Rocket 3.9 04:35:15 49° NNW 04:36:42 80° WSW 04:41:58 10° SSE
CENTAUR R/B 3.1 04:32:23 32° NW 04:36:52 79° WSW 04:45:44 10° SSE
Cosmos 2227 Rocket 4.2 04:40:17 13° NNW 04:40:17 13° NNW 04:41:12 10° N
Cosmos 2227 4.0 04:36:03 31° SW 04:38:52 78° WNW 04:44:31 10° NNE
CZ-4B R/B 4.1 04:35:48 10° S 04:35:51 10° S 04:35:51 10° S
USA 234 4.5 04:34:46 10° ENE 04:40:52 40° SE 04:46:55 10° SSW
Atlas Centaur 2 4.5 04:38:00 10° SSW 04:41:01 14° S 04:43:44 10° SE
ARGOS Delta rocket 3.9 04:37:57 10° N 04:43:05 60° WNW 04:47:55 10° SSW
ATLAS 2AS CENTAUR R/B 3.3 04:35:55 10° SSW 04:43:47 70° ESE 04:51:38 10° NE
deb Chang Zheng 4 3.4 04:42:27 10° NNE 04:46:49 88° W 04:51:09 10° SSW
Cosmos 489 Rocket 4.4 04:45:09 31° NW 04:48:09 61° WSW 04:54:22 10° S
NOSS 3-2 (A) 4.4 04:50:27 34° WNW 04:53:15 45° WSW 05:01:14 10° S
Cosmos 1633 2.3 04:52:00 10° S 04:55:31 79° W 04:59:04 10° N
Gbstr 26 Del rocket 3.5 04:56:52 34° N 04:57:36 38° NNE 05:01:16 10° E
USA 307 4.3 04:57:31 24° NNW 04:57:40 24° N 05:01:15 10° NE
SKYMED 2 3.4 04:54:40 10° SSE 04:59:00 84° WSW 05:02:28 16° NNW
Cosmos 1515 Rocket 4.5 04:55:23 10° N 04:59:43 49° ENE 05:04:03 10° SSE
Lacrosse 4 Rocket 1.5 04:58:45 30° NNW 05:00:50 78° ENE 05:05:13 10° SSE
Cosmos 1184 Rocket 2.6 04:59:19 10° SSW 05:02:35 80° WNW 05:05:53 10° N
SAR-Lupe-4 3.4 04:59:36 10° S 05:03:09 68° WSW 05:03:59 48° NW
USA 308 4.3 05:03:29 23° NNW 05:03:57 24° N 05:07:29 10° NE
METEOR-M 4.2 04:59:04 10° N 05:04:15 54° WNW 05:09:27 10° SSW
Meteor 2-17 Rocket 4.4 05:01:50 10° S 05:07:53 86° E 05:13:58 10° N
Cosmos 1844 Rocket 4.1 05:03:08 10° S 05:08:21 40° ESE 05:13:36 10° NE
USA 238 DEB 4.4 05:05:56 28° WNW 05:08:51 38° WSW 05:15:40 10° S
USA 238 4.4 05:06:00 28° WNW 05:08:58 38° WSW 05:15:47 10° S
Cosmos 1461 3.3 05:09:38 34° WNW 05:11:17 51° WSW 05:15:40 10° SSE
BREEZE-M DEB (TANK) 4.0 05:08:13 10° SSW 05:11:20 46° SE 05:19:49 10° ENE
Envisat 4.4 05:06:47 10° NNE 05:11:36 41° E 05:16:21 10° SSE
CZ-4B R/B 3.0 05:09:20 10° N 05:13:51 75° WNW 05:18:16 10° SSW
Meteor 1-26 Rocket 4.2 05:08:48 10° NNW 05:14:37 72° W 05:20:13 10° S
Cosmos 1151 Rocket 3.0 05:12:35 17° NNW 05:15:46 55° W 05:19:56 10° S
Cosmos 1689 Rocket 1.9 05:13:13 10° S 05:16:02 61° W 05:16:26 53° WNW
Okean O Rocket 4.4 05:13:07 10° NE 05:16:34 22° E 05:20:00 10° SE
ALOS 3.1 05:14:22 10° N 05:18:22 29° WNW 05:18:59 28° W
SAR-Lupe-1 4.4 05:16:52 10° S 05:20:17 43° W 05:21:35 30° NW
H-2A R/B 3.0 05:17:25 10° NNE 05:21:21 74° ESE 05:25:14 10° S
BREEZE-M DEB (TANK) 3.4 05:16:31 21° WNW 05:21:38 90° SSW 05:24:40 10° ESE
CZ-4C R/B 2.3 05:18:12 10° SSW 05:23:01 70° ESE 05:28:47 10° NE
Cosmos 1500 Rocket 4.3 05:18:49 10° S 05:23:01 54° E 05:27:15 10° NNE
CRYOSAT 2 4.5 05:19:31 10° SSW 05:24:13 50° W 05:28:58 10° NNW
ERS-2 3.9 05:21:51 10° SW 05:23:14 17° SW 05:23:14 17° SW
ERBS 3.8 05:25:08 21° NNW 05:25:08 21° NNW 05:27:36 10° NNE
Cosmos 1328 Rocket 3.7 05:22:09 10° NNW 05:26:25 49° W 05:30:41 10° SSW
BREEZE-M DEB (TANK) 2.4 05:25:50 29° WSW 05:27:09 87° N 05:31:21 10° ENE
Cosmos 2181 Rocket 4.0 05:21:13 10° NNW 05:27:16 55° W 05:33:13 10° SSW
Lacrosse 5 1.8 05:23:43 10° SW 05:28:47 84° NW 05:33:53 10° NE
Cosmos 2263 Rocket 2.9 05:28:09 13° WSW 05:32:35 33° NW 05:37:41 10° N
PSLV R/B 4.2 05:30:14 10° S 05:34:13 45° W 05:38:12 10° NNW
Meteor PRIRODA 4.0 05:32:19 10° N 05:35:53 42° WNW 05:39:25 10° SW
Meteor 2-3 Rocket 4.0 05:32:29 10° SW 05:37:54 43° WNW 05:43:25 10° N
SJ 16-02 1.8 05:34:17 10° SW 05:38:23 37° WNW 05:42:31 10° N
Cosmos 2154 Rocket 4.4 05:33:17 10° S 05:39:25 69° E 05:45:39 10° NNE
Okean 3 Rocket 4.5 05:36:06 10° SW 05:39:47 26° WNW 05:43:31 10° NNW
FALCON 9 DEB 3.0 05:37:21 10° SW 05:40:33 77° SE 05:43:46 10° ENE
BREEZE-M DEB 3.8 05:31:43 16° WNW 05:40:39 89° NNE 05:44:02 10° ESE
Cosmos 1766 Rocket 4.5 05:37:38 10° SW 05:41:28 27° WNW 05:45:19 10° NNW
Cosmos 1862 3.5 05:37:57 10° S 05:41:59 76° E 05:46:03 10° NNE
Cosmos 923 Rocket 4.3 05:37:13 10° NNW 05:42:18 48° WSW 05:47:23 10° S
ASTRO F (AKARI) 4.2 05:39:32 10° N 05:42:32 52° WNW 05:45:35 10° SSW
Cosmos 1743 Rocket 3.5 05:41:21 10° S 05:45:46 82° W 05:50:16 10° N
COSMO-SKYMED 1 3.6 05:43:35 10° SSW 05:47:13 26° W 05:50:52 10° NW
CZ-4B R/B 4.2 05:43:21 10° NNE 05:48:33 50° E 05:53:47 10° S
Cosmos 1408 Rocket 4.0 05:46:07 10° SW 05:50:17 38° WNW 05:54:29 10° N
CZ-2C R/B 3.5 05:45:10 10° SE 05:50:31 53° ENE 05:55:46 10° N
Cosmos 990 Rocket 4.0 05:48:01 10° SW 05:53:10 58° WNW 05:58:23 10° NNE
MOS 1-B 4.5 05:47:31 10° NNE 05:53:22 83° ESE 05:59:11 10° SSW
ATLAS 3B R/B 2.8 05:47:31 10° NW 05:54:28 83° SW 06:01:42 10° SSE
COSMOS 2455 4.1 05:50:59 10° S 05:56:41 46° ESE 06:02:25 10° NE
Spot 2 4.5 05:52:30 10° N 05:57:38 67° WNW 06:02:40 10° SSW
EO 1 Delta rocket 4.2 05:53:43 10° S 05:58:54 49° W 06:03:27 10° NNW
PSLV R/B 3.9 05:55:25 10° N 05:59:13 50° WNW 06:02:53 10° SSW
ATLAS 5 CENTAUR R/B 4.0 06:01:57 10° NW 06:02:51 11° NW 06:03:44 10° NNW
Cosmos 2327 Rocket 4.4 05:57:15 10° SSW 06:03:21 76° W 06:09:28 10° N
ATLAS CENTAUR R/B 1.3 06:00:24 10° NNW 06:04:10 74° NE 06:08:06 10° SE
Cosmos 2074 Rocket 4.2 05:58:19 10° SSW 06:04:19 50° WNW 06:10:22 10° N
MOS 1 Rocket 3.7 06:00:28 10° S 06:04:58 46° W 06:09:48 10° NNW
Cosmos 1805 Rocket 3.7 06:01:09 10° S 06:05:34 81° E 06:10:02 10° N
Meteor 1-4 Rocket 4.3 06:06:06 11° WNW 06:07:44 14° W 06:09:31 10° WSW
FALCON 9 DEB 2.9 06:07:10 10° WSW 06:10:21 63° NNW 06:13:32 10° NE
NOAA 6 4.0 06:05:46 10° N 06:10:50 64° WNW 06:15:53 10° SSW
Cosmos 1680 Rocket 4.2 06:06:29 10° NW 06:11:19 36° WSW 06:16:07 10° SSW
Cosmos 1782 4.2 06:09:02 10° NW 06:12:01 20° W 06:15:00 10° SW
SL-4 R/B 3.1 06:09:19 10° WNW 06:12:37 26° N 06:15:45 10° NE
SMAP 3.1 06:08:09 10° NNE 06:12:50 88° WNW 06:17:29 10° SSW
FALCON 9 DEB 3.0 06:09:47 10° WSW 06:12:57 57° NNW 06:16:08 10° NE
RESURS DK-1 2.6 06:10:17 10° SW 06:14:17 46° WNW 06:18:19 10° NNE
H-2A R/B 2.4 06:10:53 10° N 06:14:38 49° WNW 06:18:19 10° SSW
NOSS 3-4 (A) 4.2 06:10:09 10° W 06:15:27 32° NW 06:21:09 10° NNE
NOSS 3-4 (C) 4.2 06:10:15 10° W 06:15:34 32° NW 06:21:17 10° NNE
Cosmos 2184 Rocket 4.4 06:12:33 10° SW 06:18:27 42° WNW 06:24:28 10° N
Genesis I 3.3 06:15:52 10° SW 06:19:36 54° NW 06:23:24 10° NNE
Cosmos 2228 Rocket 3.4 06:17:06 10° NNW 06:21:22 46° W 06:25:32 10° SSW
Cosmos 1295 Rocket 4.4 06:16:44 10° SSW 06:22:47 69° W 06:28:51 10° N
